Starlink 4120

operational
NORAD ID: 53537 Int'l Des: 2022-101 Owner: SPXS Country: US Constellation: starlink
LEOCIRCULAR

Über Starlink 4120

Beschreibung wird geladen...

Live-Position

3D-Globus wird geladen...

Nächste Überflüge

Höhenverlauf

Altitude vs Time

uPlot chart will show altitude changes over time

Zweizeiliger Elementsatz

1 53537U 22101L 25257.39793143 -.00000178 00000-0 69306-5 0 9995
2 53537 53.2172 145.4989 0001322 90.8383 269.2760 15.08827743169557
Epoch: 14. Sept. 2025 • Age: 22 hours

Aktueller Status

Höhe 558.9 km
Geschwindigkeit 7.58 km/s
Subsatellitenpunkt -52.38°S, 39.64°W
Startdatum 19. Aug. 2022
Alter 3 years
Typ internet

Technische Details

Klassifizierung Payload
Masse 300.00 kg
Trockenmasse 290.00 kg
Gesamtmasse 300.00 kg
Länge 0.20 m
Durchmesser 2.80 m
Spannweite 9.00 m
Form Box + pan
Hersteller SPXS
Bus-Typ Starlink
Phasenstatus In Orbit
Besitzer/Staat SPXS/US

Große Konstellationen

Loading constellations...